RH
77 78 78 78 78 80 83 84 86 89 92 93 94 94 94 97 98 98 97 96 97 97 96 95 96 98 99 100 100 100 100 100 100 100 99 100 100 99 100 100 100 100 100 100 100 100 100 99 97 97 99 100 98 98 100 97 92 90 91 90 88 88 87 85 88 92 87 81 80 80 78 82 91 92 88 88 91 95 99 98 96 96 93 92 92
79 77 78 80 82 85 87 88 90 92 95 96 96 95 95 97 99 99 99 99 100 99 97 98 99 100 100 100 100 100 100 100 100 100 100 100 100 99 100 100 100 100 99 100 100 99 100 99 97 97 98 100 100 99 100 98 96 96 95 91 90 90 89 87 87 90 87 79 77 79 81 84 90 93 88 80 82 93 99 99 98 96 92 91 90
78 76 80 83 85 87 87 88 90 90 92 94 94 94 95 96 97 98 99 99 98 96 95 98 100 100 100 100 99 99 99 100 100 100 100 100 100 100 100 100 100 100 99 100 100 99 101 100 97 98 98 99 100 98 98 99 97 96 94 91 90 88 86 85 83 86 86 81 80 84 89 90 86 86 84 74 73 87 96 95 94 95 93 91 91
76 75 82 84 86 87 87 90 91 89 89 90 90 92 92 94 96 96 95 95 95 95 94 97 99 100 100 98 95 95 98 100 100 100 100 100 100 100 100 100 100 100 100 100 100 99 100 97 95 97 99 100 100 99 99 99 96 97 96 93 92 91 90 87 84 86 85 82 84 87 90 91 84 80 81 78 77 85 91 91 91 92 95 97 95
76 79 84 85 86 86 88 92 92 89 88 88 89 91 91 94 96 96 95 96 98 98 98 98 98 100 99 96 93 95 98 100 100 100 100 100 100 100 100 100 99 100 100 99 99 98 96 95 93 94 97 97 96 99 100 94 93 98 95 90 93 94 90 86 86 89 86 81 83 87 89 90 86 80 79 81 89 96 95 93 90 88 94 100 99
79 83 86 86 87 89 90 93 91 89 89 89 91 93 95 97 98 98 98 99 100 99 97 96 97 98 98 96 96 98 100 100 99 100 100 99 99 100 100 100 100 100 97 95 97 98 97 98 96 95 97 94 90 95 99 94 92 97 94 91 94 93 89 89 88 88 88 82 80 84 90 90 87 85 80 76 85 97 98 97 96 91 90 94 99
79 83 86 87 89 90 91 93 91 90 92 93 93 95 98 99 100 100 98 97 98 98 94 93 94 96 98 98 99 100 100 99 99 99 100 100 99 100 100 99 100 100 96 91 92 97 99 100 98 97 99 98 91 91 96 97 94 94 93 91 93 93 93 95 91 87 88 86 80 80 84 85 83 84 85 82 84 91 94 97 101 100 92 83 83
80 83 87 88 90 90 91 92 91 92 96 97 96 96 98 100 100 98 96 95 98 98 96 93 91 90 94 98 99 100 100 99 98 98 99 99 99 100 99 99 99 100 98 93 91 94 98 99 99 99 99 99 95 90 93 97 96 95 94 90 90 93 96 98 96 92 89 87 82 76 74 77 78 77 84 94 97 94 90 87 88 96 91 70 56
83 85 87 89 92 91 89 89 91 93 97 99 99 98 99 100 99 97 97 98 99 99 97 95 92 90 94 99 100 100 100 100 99 99 100 99 99 99 98 98 99 100 99 96 95 95 96 97 99 100 99 99 96 89 88 93 96 97 94 87 86 91 95 97 97 94 90 87 83 75 68 70 73 71 77 89 91 84 82 80 79 83 75 55 47
85 88 90 91 92 93 91 91 93 96 98 100 100 99 99 100 99 98 99 100 99 99 98 97 97 97 98 100 100 99 100 100 99 100 99 96 97 99 97 95 98 99 97 96 98 98 96 98 99 100 99 99 98 93 88 91 95 96 91 86 87 91 92 94 95 93 90 87 82 75 69 67 66 65 69 77 77 73 74 77 77 72 65 58 62
88 90 91 92 92 94 95 95 97 99 100 100 100 100 100 100 100 100 100 100 100 100 99 99 99 100 100 100 100 99 100 100 99 99 98 96 97 100 99 98 98 98 95 96 100 98 95 98 100 98 95 97 100 99 93 90 94 97 95 89 87 89 90 91 93 92 89 85 80 74 69 67 63 60 61 66 68 66 65 70 68 60 60 66 67
91 91 92 92 94 96 97 97 99 100 100 100 100 100 100 100 100 100 99 100 100 100 100 100 100 100 100 100 100 100 100 100 100 99 98 97 95 96 98 99 99 99 98 98 100 98 95 98 99 95 91 93 99 100 95 93 96 99 99 92 88 90 93 90 89 91 89 85 80 72 68 65 59 56 57 60 62 59 56 62 61 50 51 59 57
93 93 92 92 94 96 97 98 100 100 99 100 100 100 100 100 100 100 100 100 100 100 100 100 100 100 100 100 100 100 100 100 100 98 96 94 92 94 98 100 99 100 100 99 100 100 98 98 99 96 92 93 98 99 97 97 99 100 99 97 94 95 96 91 86 87 88 84 78 73 69 63 55 51 52 54 56 53 48 49 48 41 41 47 47
94 95 94 94 95 96 97 99 100 100 100 100 100 100 100 100 100 100 100 100 100 100 100 100 100 100 100 100 100 100 100 100 100 98 96 95 94 96 99 100 100 100 100 100 100 100 100 99 99 99 97 97 99 100 99 99 100 100 99 99 97 96 97 92 83 82 85 83 79 76 72 61 50 47 47 47 48 46 40 39 39 39 40 44 49
95 96 97 97 96 97 98 99 99 100 100 100 100 100 100 100 100 100 100 100 100 100 100 100 100 100 100 100 99 99 100 100 99 97 96 95 95 95 96 98 99 99 100 100 100 100 100 100 100 100 100 100 100 100 100 100 100 99 97 96 95 92 91 85 76 76 81 81 78 77 74 65 55 50 45 42 43 39 33 31 33 39 47 56 66
94 96 97 98 97 98 98 98 98 100 100 100 100 100 100 100 100 100 100 100 100 100 99 100 100 100 100 100 99 100 100 99 98 94 92 91 90 91 92 93 95 97 98 99 100 100 100 100 100 100 99 99 98 99 99 98 96 94 93 94 92 90 89 87 79 75 74 74 74 75 76 73 68 61 51 44 42 38 32 35 41 49 61 76 88
93 95 97 97 97 97 97 97 98 98 99 99 100 100 100 100 100 100 99 99 99 100 100 100 100 100 100 100 100 100 100 99 96 91 89 88 86 87 88 90 93 95 96 98 99 100 100 100 100 100 97 96 95 95 94 92 90 89 89 89 88 86 88 90 87 81 77 76 75 73 72 71 68 69 65 57 52 45 42 52 60 62 72 85 94
92 94 97 97 96 96 95 95 96 97 98 98 98 99 100 100 100 99 97 97 98 99 98 97 97 97 97 97 98 98 99 100 98 93 91 88 86 88 89 88 90 92 93 96 99 99 100 100 100 99 96 93 91 90 89 87 86 86 85 85 84 83 83 83 83 84 85 84 81 77 76 73 71 77 80 75 70 62 56 60 65 67 75 83 87
92 94 96 95 94 93 92 93 94 95 97 97 96 98 99 99 99 98 96 95 96 96 95 94 93 94 93 90 89 90 91 94 95 95 94 90 90 92 91 89 92 93 92 93 95 96 98 99 99 98 94 90 88 86 85 84 86 89 87 84 84 83 79 76 75 76 77 78 79 77 77 77 77 81 84 82 81 79 73 69 67 68 74 77 78
92 94 94 92 91 91 90 91 93 93 94 95 95 96 98 98 97 96 95 95 95 94 94 93 93 94 91 87 84 83 82 83 84 86 87 88 90 91 90 92 97 96 93 92 92 93 94 95 96 94 92 90 89 88 88 87 87 87 84 83 85 82 73 67 64 64 64 65 67 67 68 71 72 73 76 76 75 76 77 80 80 78 79 77 74
89 91 91 89 88 88 88 89 90 90 90 90 91 93 94 94 95 94 95 96 95 94 95 94 95 95 93 89 86 83 80 76 74 74 74 77 79 80 83 89 93 90 88 89 91 92 92 92 92 90 88 88 88 88 89 87 84 83 82 82 82 76 69 65 61 59 57 56 57 58 60 63 65 64 65 66 67 68 72 79 85 88 86 78 70
83 86 86 86 86 86 87 87 87 86 86 86 87 89 89 90 91 91 92 93 93 93 93 93 94 95 95 94 91 87 82 75 71 69 68 68 69 70 72 76 78 77 78 81 84 86 87 88 89 89 87 86 85 85 85 84 82 82 82 80 77 72 70 69 66 62 62 61 61 61 61 63 65 65 62 62 64 66 68 73 80 86 85 77 70
76 79 80 82 84 84 85 86 85 84 84 84 85 87 87 86 87 87 88 89 89 90 91 91 92 92 93 94 93 90 85 78 73 71 69 68 68 68 68 68 68 68 71 75 77 78 78 79 81 83 83 83 84 84 84 83 82 81 80 78 76 74 72 71 68 68 71 73 74 72 67 62 64 68 68 66 65 65 65 66 69 72 73 71 69
70 72 73 75 78 80 82 82 82 82 83 82 84 86 86 85 86 87 87 87 88 90 91 91 91 92 92 91 90 88 85 82 79 76 74 72 71 70 69 69 68 67 70 75 76 75 75 74 73 74 75 76 78 79 80 81 81 81 81 80 78 76 73 71 70 71 74 77 79 80 74 66 64 66 68 67 67 66 63 62 61 61 61 62 64
66 66 67 69 72 74 76 77 78 78 78 77 78 81 82 83 85 86 86 87 88 90 92 92 92 92 91 89 86 83 81 80 79 78 77 76 75 74 73 73 72 71 73 76 76 74 73 72 70 69 70 70 70 71 72 74 75 75 76 76 76 75 74 72 71 71 74 76 78 80 80 77 73 70 68 66 64 60 57 56 57 57 56 56 59
62 62 63 66 67 67 68 70 71 71 71 71 71 73 75 76 78 80 81 85 89 91 93 94 95 94 94 91 87 84 80 79 78 76 75 75 74 74 73 73 72 70 69 68 66 64 65 66 67 70 70 69 69 69 70 70 69 70 72 73 74 74 73 71 70 70 72 72 72 75 77 76 73 69 66 65 61 57 56 55 55 55 54 52 54
57 58 59 60 61 62 63 66 67 67 68 68 69 70 70 70 71 73 74 77 83 86 88 90 91 92 92 90 86 82 79 77 75 71 67 66 66 65 63 63 62 62 63 63 63 63 63 63 64 66 67 68 68 68 69 69 69 70 73 75 77 78 77 76 74 74 74 71 69 69 69 69 70 69 68 68 67 66 65 63 60 59 57 53 54
54 56 57 59 60 62 63 65 67 69 71 71 71 71 69 67 67 69 67 65 67 70 72 75 77 79 80 79 78 78 77 75 73 68 61 58 57 58 59 59 60 62 64 65 63 63 62 62 63 63 64 66 67 68 69 71 70 70 70 70 72 74 76 76 75 75 76 76 74 73 72 73 76 77 75 74 73 71 70 70 69 65 60 57 59
54 56 57 60 63 66 67 68 71 73 74 75 75 74 70 66 66 67 65 61 61 62 63 64 65 67 68 70 71 74 77 77 73 67 62 59 59 60 63 64 65 66 65 61 58 59 62 64 67 68 67 68 69 68 69 69 68 67 67 66 65 67 68 70 72 73 75 77 78 79 79 79 79 80 78 76 73 69 68 72 75 71 62 57 59
53 55 57 61 65 68 71 74 74 74 75 77 77 77 74 70 68 68 67 66 65 65 65 65 65 65 66 67 68 70 73 74 72 68 67 65 64 65 66 66 65 65 63 59 58 63 67 69 69 69 69 69 70 70 69 69 69 69 68 67 65 65 64 65 66 68 69 71 74 77 78 76 74 74 74 73 71 69 66 66 70 74 68 59 57
52 54 56 60 63 66 71 75 75 75 75 74 74 76 76 74 72 70 69 69 68 68 68 69 68 68 69 70 70 71 71 71 70 69 69 68 67 68 68 67 66 66 65 63 63 66 68 69 69 70 70 71 71 70 69 68 68 68 69 68 66 65 63 62 63 63 64 65 68 70 71 70 69 69 70 69 68 67 67 65 65 70 72 63 55
51 52 54 59 60 62 66 70 72 74 75 71 67 66 67 70 69 65 61 61 63 66 68 67 66 65 65 65 66 68 69 70 69 68 68 68 68 68 68 68 68 68 67 66 67 69 69 69 70 70 71 72 71 69 67 66 66 67 69 69 68 66 64 62 61 62 62 62 62 63 63 63 64 66 65 63 62 63 65 66 64 66 73 70 61
52 52 53 55 56 57 60 63 65 67 67 65 60 55 54 56 58 57 56 56 58 60 62 61 61 60 59 57 57 59 64 68 68 67 67 67 67 66 67 68 68 68 68 68 70 71 71 71 71 71 71 71 71 69 67 66 67 68 69 69 67 66 64 61 59 59 60 60 59 59 60 58 58 61 60 58 59 60 60 61 61 61 66 70 67
55 54 54 53 52 52 54 56 58 58 55 54 53 51 50 50 51 54 55 56 57 57 57 57 57 56 55 54 53 55 59 63 63 62 61 62 62 60 59 60 62 64 65 67 71 74 74 74 74 74 74 74 73 72 70 69 69 69 69 68 67 66 64 61 58 56 56 57 56 56 56 53 53 57 59 58 60 60 58 57 58 58 58 61 62
54 56 57 56 55 54 52 52 52 52 50 50 50 50 51 51 52 53 54 53 54 53 52 53 54 54 53 53 52 52 54 56 57 58 57 58 58 56 54 57 61 63 62 62 65 70 73 75 76 75 74 73 73 74 74 72 71 72 71 70 69 67 65 63 59 55 53 53 52 52 52 49 48 52 55 56 58 58 56 56 56 55 54 54 54
48 51 53 54 55 55 55 53 53 52 53 54 55 54 54 54 54 55 56 56 56 55 54 53 53 53 53 53 52 52 52 53 54 55 56 56 56 55 57 62 65 66 66 64 62 63 66 70 74 74 71 69 72 77 78 75 74 74 74 74 73 71 69 67 63 58 54 51 50 49 47 45 46 49 50 50 53 54 54 55 57 56 54 52 49
45 46 47 48 49 50 51 51 53 55 56 56 55 54 54 56 57 58 57 57 57 58 57 54 52 51 51 51 51 51 51 52 53 54 54 55 56 56 58 60 62 64 67 68 67 66 65 66 70 72 71 70 72 76 76 75 74 74 74 75 75 74 73 70 66 61 58 54 50 47 46 46 48 47 44 43 47 51 51 52 54 56 57 56 52
43 44 45 46 45 45 47 48 50 51 49 47 45 44 47 53 55 54 52 52 54 57 56 52 49 49 50 50 50 51 51 52 53 54 55 56 56 58 59 59 59 61 63 66 68 68 65 63 66 71 73 73 73 74 74 73 73 74 74 74 74 74 75 74 69 65 62 58 53 48 45 45 45 43 40 40 41 44 47 48 49 52 55 55 54
42 42 43 44 44 44 45 46 47 46 43 42 42 41 42 47 50 48 47 49 52 53 52 50 49 49 50 50 50 51 53 54 54 55 56 57 58 59 59 59 60 60 60 62 64 63 60 59 61 66 70 70 70 73 76 76 75 74 74 76 76 76 77 76 72 68 66 63 58 53 47 45 43 41 40 39 36 35 38 41 42 44 46 48 51
42 42 42 42 43 43 43 44 45 44 43 44 44 42 40 40 42 43 45 47 48 48 48 48 49 49 48 48 48 50 53 55 54 53 54 55 57 59 59 59 60 58 57 59 62 61 60 58 58 64 68 65 59 63 71 77 79 77 76 78 80 80 79 78 76 72 69 66 62 59 53 49 47 45 44 42 39 36 34 35 36 37 37 38 42
43 43 43 42 42 42 42 42 42 42 44 45 45 45 43 40 39 39 41 44 46 47 47 48 48 46 43 43 44 46 49 51 52 52 51 50 52 55 57 58 58 55 53 54 57 59 59 56 54 57 59 54 51 58 67 73 77 79 80 81 82 81 80 79 78 76 73 69 65 63 59 53 50 49 48 47 45 41 38 35 34 34 33 33 34
42 42 43 42 42 42 41 41 40 41 42 43 43 45 45 43 41 40 39 42 45 47 47 48 47 44 42 43 44 44 45 46 48 50 49 47 46 48 52 55 56 54 50 50 51 54 55 52 48 45 42 35 38 53 66 68 70 75 77 80 83 83 81 81 80 78 76 72 68 65 61 56 51 50 49 47 47 46 44 42 39 36 33 32 31
41 41 41 41 42 42 42 42 41 40 40 40 41 42 43 43 43 42 40 41 44 46 48 49 47 44 43 44 45 45 44 44 45 47 48 46 44 45 48 50 52 51 49 48 48 49 51 50 45 41 35 28 28 43 59 65 67 70 71 74 80 83 83 82 81 79 78 75 71 67 63 56 51 48 45 43 44 45 46 46 47 45 41 35 32
39 39 40 40 40 40 40 40 39 38 38 38 39 40 40 41 41 41 40 41 42 43 45 47 47 45 44 43 44 44 43 43 43 44 46 46 45 45 47 48 47 48 48 48 48 47 48 48 46 43 40 34 33 41 52 58 61 64 65 67 71 76 79 80 80 80 80 77 73 70 67 61 53 47 44 41 42 45 47 45 44 44 42 38 34
36 37 38 39 39 39 39 37 36 37 37 36 37 38 38 38 38 39 39 39 39 40 41 41 41 41 40 40 42 42 41 42 42 42 44 45 45 45 47 47 47 47 48 49 48 48 47 48 48 48 46 43 40 41 45 48 48 50 52 53 53 52 50 50 55 65 76 81 77 72 70 68 61 54 50 47 46 45 44 41 37 36 36 36 36
38 38 38 38 38 38 38 37 38 38 37 36 35 35 35 35 36 36 37 37 37 37 38 37 38 37 37 38 39 40 39 40 41 41 42 44 44 45 47 47 47 49 50 50 49 50 50 50 50 49 49 48 45 42 42 44 45 45 44 46 47 43 35 27 25 33 53 73 80 77 73 71 68 63 58 55 50 45 41 38 35 34 34 34 35
39 39 38 38 38 38 38 39 39 38 38 37 36 34 33 34 34 33 33 34 35 35 36 37 37 36 36 37 38 38 38 39 40 40 41 42 44 45 47 47 48 49 50 50 50 50 51 51 50 50 50 50 49 47 45 48 50 48 44 44 47 48 43 32 20 14 26 52 74 81 77 73 71 69 64 61 58 54 50 45 42 40 38 36 36
39 39 38 38 38 38 37 38 38 36 35 36 35 32 31 32 32 32 32 32 33 34 36 37 37 37 36 36 37 38 39 39 40 40 40 41 44 45 46 47 49 49 50 51 51 51 50 50 50 50 50 50 50 50 48 49 51 51 47 44 46 47 45 40 30 17 13 26 51 73 81 79 75 71 67 64 62 59 56 55 52 48 43 39 37
37 35 34 35 37 36 35 35 35 34 32 32 32 31 30 29 29 31 31 31 31 32 33 34 36 37 36 35 36 38 39 40 40 40 40 41 43 45 46 47 49 49 50 50 51 50 50 51 51 51 51 51 51 51 50 49 50 52 51 49 49 49 48 45 40 31 18 12 23 46 66 77 81 79 74 70 66 62 60 61 60 54 45 40 38
35 33 33 34 35 34 33 34 33 32 31 30 30 31 31 29 28 29 30 30 31 31 31 32 33 34 34 35 35 37 38 39 39 40 40 41 43 45 46 47 48 49 49 50 51 51 51 51 51 52 52 51 51 51 51 49 49 51 52 53 53 53 51 48 45 41 31 18 13 20 36 55 72 81 82 78 75 70 66 63 58 50 41 37 38
34 34 35 36 36 34 32 32 31 31 32 31 29 29 31 31 30 30 31 31 32 32 32 33 34 34 34 34 34 34 35 37 38 39 40 40 42 44 45 46 47 47 48 49 49 50 51 51 50 52 53 52 51 50 50 49 48 49 51 53 54 54 52 49 46 45 39 28 18 14 20 32 51 70 82 84 82 80 74 63 51 44 40 38 38
Wind_Speed
9 9 8 7 7 8 8 9 9 10 10 10 10 10 10 11 12 13 13 13 13 13 14 15 15 16 16 16 16 16 16 15 15 15 16 18 19 20 21 22 23 24 23 22 23 24 24 23 22 22 21 21 22 22 21 23 23 21 20 24 22 17 18 17 10 7 13 21 23 22 24 27 27 27 25 20 18 18 19 20 21 21 22 21 20
10 9 9 9 9 10 11 11 11 12 12 13 13 11 11 11 12 13 13 13 13 13 14 15 16 15 14 15 15 14 14 14 13 14 15 17 19 20 21 23 23 23 22 22 23 23 23 23 21 20 20 21 22 21 20 21 21 20 21 24 23 17 16 16 13 10 10 17 23 23 25 28 27 26 24 19 18 20 21 20 20 20 19 19 20
12 9 9 11 12 12 13 13 13 13 13 14 13 12 12 12 13 13 14 14 14 13 14 15 15 14 13 14 15 14 13 13 12 12 14 15 17 20 22 24 24 22 22 23 23 21 20 20 20 19 18 20 20 20 21 23 23 24 24 25 25 22 19 17 16 14 12 15 22 25 27 28 27 26 23 19 19 21 22 21 20 19 18 18 19
12 9 10 13 14 14 15 15 14 14 14 14 14 13 13 12 12 13 14 16 15 14 14 14 13 13 13 14 13 12 12 12 12 12 13 14 16 19 22 23 23 22 22 21 19 18 18 18 19 20 19 20 18 16 19 23 25 24 22 23 23 22 19 16 17 18 16 16 20 25 29 29 26 26 24 21 22 23 22 21 19 18 19 19 19
12 11 13 16 15 15 16 16 16 16 16 15 15 14 13 12 13 13 15 16 16 15 16 15 15 14 14 12 10 10 12 11 11 11 12 12 13 18 20 20 21 19 18 17 16 15 17 17 18 18 18 20 20 18 18 21 22 21 20 22 21 21 22 19 17 19 18 17 18 20 24 25 24 25 26 24 24 22 21 21 20 19 19 20 20
12 14 17 17 16 17 17 17 17 17 17 16 15 14 13 13 14 15 15 15 15 16 16 15 15 15 14 12 10 10 12 11 9 10 10 9 10 14 17 17 16 13 11 14 16 15 17 17 16 16 17 20 23 22 21 21 21 20 21 23 22 22 24 23 22 23 20 17 18 19 20 22 22 24 27 28 27 25 22 22 21 21 21 21 22
12 15 18 17 17 18 17 17 17 17 17 17 16 15 15 15 16 16 15 15 15 16 16 15 15 15 14 13 11 9 9 9 8 7 7 7 8 9 9 10 10 9 11 15 17 16 16 16 16 17 18 20 20 22 23 23 22 22 22 23 23 23 25 26 26 26 22 19 21 23 24 24 24 25 27 28 27 25 25 24 22 22 22 22 23
13 15 17 18 18 18 17 16 17 17 17 17 16 16 16 16 16 15 14 14 15 16 16 15 14 14 13 13 11 8 6 7 7 5 5 5 7 6 4 5 7 8 11 14 15 16 15 15 16 17 17 18 18 21 23 24 24 23 22 22 22 22 23 24 24 24 22 21 23 24 24 25 25 24 25 26 23 21 24 26 26 25 24 22 22
17 16 17 18 18 17 17 17 18 18 18 17 17 17 17 17 16 15 14 14 14 14 14 15 15 14 14 13 13 10 7 7 6 4 4 4 5 5 4 5 6 7 8 10 10 12 12 13 14 13 14 16 19 20 21 23 24 24 24 24 25 24 22 22 23 24 23 22 22 21 21 23 25 24 24 27 28 25 25 26 26 26 25 23 22
17 17 18 18 18 17 17 17 17 17 18 18 19 19 19 19 19 19 18 17 16 15 15 15 15 15 16 17 16 14 11 10 7 5 4 5 4 3 3 4 4 5 7 8 7 9 10 11 11 9 9 13 16 17 17 18 20 23 24 27 29 29 27 26 26 28 27 24 24 24 21 21 26 28 29 31 31 28 27 26 25 25 23 20 19
17 18 19 19 18 18 17 17 17 17 18 19 20 21 21 21 22 22 22 21 20 18 17 17 16 16 18 19 19 17 15 14 12 8 7 7 4 3 4 3 1 4 6 6 5 7 8 8 7 5 6 9 12 14 14 14 17 20 23 25 26 27 29 29 28 30 29 26 25 26 24 22 26 29 30 32 31 27 28 29 26 24 23 18 14
18 18 19 19 19 18 17 17 18 19 19 19 20 21 21 22 23 23 24 24 23 21 20 20 19 20 21 22 22 19 16 17 17 15 13 12 11 10 11 10 7 3 1 2 2 3 5 6 6 5 5 8 12 14 13 13 16 18 20 22 21 21 24 26 26 28 28 26 25 25 24 24 26 29 30 32 32 29 28 29 27 26 26 23 19
18 18 18 18 19 19 18 18 19 20 19 19 20 21 22 23 22 23 24 25 26 26 25 24 24 24 26 27 26 22 20 21 20 17 15 14 12 13 14 13 12 10 7 4 3 3 2 2 4 4 5 8 12 14 13 14 15 15 16 18 18 17 17 17 21 25 26 24 25 26 24 23 26 31 32 32 33 31 27 27 28 28 28 28 25
18 18 18 17 17 18 18 19 19 19 19 19 21 22 23 23 22 22 24 26 28 29 29 29 29 29 30 31 29 26 25 25 22 19 18 17 16 16 17 16 15 14 12 10 7 7 6 4 3 4 4 7 10 13 14 14 14 12 12 13 14 14 11 7 11 19 21 20 23 24 21 22 26 31 32 31 33 32 30 30 30 28 28 26 23
18 18 18 18 17 18 19 20 20 19 19 20 22 22 23 24 23 24 25 26 27 28 30 32 33 33 33 33 32 30 29 28 25 22 21 20 21 22 22 21 20 18 17 14 11 10 11 11 11 11 9 8 8 10 12 13 13 12 13 14 13 13 12 9 7 9 12 13 15 16 14 15 21 26 28 29 30 30 30 31 31 28 25 21 18
17 17 18 19 18 18 19 20 20 20 20 21 22 22 23 23 24 24 26 28 29 30 32 33 34 34 34 33 33 32 30 28 28 27 24 23 24 26 26 26 26 25 23 21 18 15 13 15 15 14 12 11 9 10 13 14 16 17 18 18 18 16 15 16 16 15 17 18 17 15 15 14 14 15 19 23 25 27 27 27 26 26 23 19 16
17 16 17 18 18 18 19 20 20 20 21 22 22 21 21 22 22 24 27 30 31 32 33 35 35 35 35 33 32 32 30 28 29 30 29 28 28 30 31 31 33 33 31 29 27 22 18 17 17 16 15 14 13 13 15 18 21 24 26 27 27 26 24 22 21 19 19 20 19 16 16 17 16 15 14 15 16 21 25 25 26 28 26 19 14
16 16 17 17 18 19 20 20 21 21 22 23 22 21 21 21 22 24 27 30 31 31 33 37 38 38 37 35 33 32 30 27 27 30 31 31 32 33 34 36 37 37 36 35 34 31 25 21 21 21 20 19 18 18 20 23 26 29 30 31 31 28 24 23 24 24 22 22 20 17 17 16 16 14 14 17 18 19 22 26 28 29 25 19 15
16 16 16 17 19 20 21 21 21 22 22 23 22 22 21 21 22 25 28 30 31 32 35 38 39 39 39 39 37 36 34 29 26 27 29 31 32 32 34 37 38 37 37 38 38 37 33 30 28 26 24 23 23 24 26 28 29 29 29 30 29 24 21 21 24 25 24 23 21 18 18 17 15 14 12 13 15 15 15 19 25 26 20 18 20
17 18 17 18 19 20 22 22 22 22 23 23 23 22 22 22 23 26 27 29 31 34 35 37 38 38 39 41 40 39 38 36 32 30 30 31 33 34 36 37 35 36 38 39 39 40 38 36 34 30 28 27 27 28 29 29 29 28 29 30 28 25 24 26 27 27 27 27 25 22 22 19 17 16 13 10 10 8 8 13 19 20 18 20 23
20 20 19 20 21 21 23 24 23 23 23 24 24 23 22 22 24 26 27 28 31 33 33 34 36 36 37 39 41 40 40 39 37 36 35 35 35 37 39 37 35 37 40 40 38 38 38 38 36 33 30 30 30 30 29 28 29 30 30 30 28 26 27 28 28 28 28 28 27 26 24 22 20 18 16 15 13 10 6 6 9 12 14 17 17
22 22 22 22 22 23 23 24 24 24 23 24 24 23 23 23 24 25 27 28 30 31 31 32 33 34 35 36 37 38 39 40 39 38 37 37 37 37 38 36 35 37 40 39 37 37 37 36 36 34 32 32 31 31 30 29 29 30 28 27 26 25 27 28 27 28 28 28 28 27 26 25 25 23 22 21 18 16 14 12 9 7 8 10 9
24 25 24 24 24 24 24 24 25 25 25 25 26 25 25 26 26 26 27 29 30 29 28 29 31 33 33 33 34 34 36 37 38 38 37 37 37 37 37 36 35 37 38 36 34 33 32 32 32 32 33 33 32 32 32 31 30 28 26 24 24 23 24 25 26 27 29 29 29 28 27 26 25 24 24 23 21 19 18 17 15 13 13 11 9
25 25 25 25 25 25 25 25 25 25 25 26 27 26 26 27 28 27 28 29 30 29 27 28 30 31 32 32 32 32 32 33 34 34 34 35 35 36 36 36 36 36 37 35 33 32 30 29 28 28 29 30 31 31 32 32 31 29 27 25 25 24 24 25 26 27 28 28 27 26 24 23 23 21 19 18 18 19 19 19 18 17 17 16 15
26 25 25 26 26 27 27 26 26 26 27 28 28 27 27 28 28 28 29 30 30 29 28 28 30 31 31 31 31 31 31 31 31 30 31 32 32 33 34 34 35 35 36 35 33 32 31 29 28 28 28 28 28 28 29 28 27 26 26 26 26 26 26 26 26 27 27 26 25 23 21 20 19 18 16 14 16 18 18 17 18 17 16 16 16
26 26 26 26 27 29 30 29 29 29 29 30 31 31 31 31 31 31 31 30 29 28 27 28 29 29 30 30 30 31 32 32 31 30 29 30 30 30 31 32 33 33 34 33 32 32 32 31 31 31 31 30 30 30 29 27 25 25 25 25 25 25 24 24 24 24 23 21 20 19 18 16 14 12 12 12 12 13 12 11 11 11 10 9 10
28 27 28 29 29 32 33 32 32 33 33 33 34 33 33 34 34 33 32 31 30 29 29 28 28 28 28 29 30 32 33 32 31 30 29 29 29 29 30 31 32 33 33 33 33 33 34 33 33 32 32 31 31 30 30 29 28 27 26 25 25 25 23 23 22 22 19 15 13 11 11 11 10 9 9 9 8 7 7 7 7 6 5 3 4
29 29 30 31 31 32 33 34 34 34 34 34 34 33 33 34 34 33 31 31 32 32 31 30 29 28 28 29 30 31 32 32 31 30 29 29 28 29 30 31 31 32 33 33 34 34 34 34 34 34 33 33 32 30 30 29 28 27 26 25 24 23 23 23 23 22 19 15 11 8 7 7 8 8 8 8 8 6 4 3 4 5 6 7 10
29 30 30 30 30 31 32 33 33 34 34 34 33 32 32 32 32 31 30 30 31 31 32 31 30 29 30 29 29 29 29 29 29 29 29 29 28 28 29 30 30 31 30 30 32 33 34 34 35 34 34 33 33 31 29 28 26 26 24 23 22 22 22 22 22 21 19 16 14 12 10 9 8 6 6 8 10 9 5 0 2 5 7 9 12
29 29 29 30 30 30 30 31 32 33 33 32 32 31 30 30 30 30 29 28 28 29 30 30 30 30 30 30 29 28 27 26 26 28 29 29 28 28 28 28 29 29 29 30 32 33 33 33 32 32 31 31 31 30 28 27 25 24 23 22 21 21 21 21 20 19 17 16 14 13 12 11 10 9 8 9 10 10 8 4 1 5 7 9 12
29 28 28 29 29 30 30 29 30 31 31 31 31 30 29 28 28 27 27 26 26 27 28 28 28 28 28 27 26 25 24 25 25 26 26 26 27 27 26 26 27 27 28 31 33 32 30 30 29 28 28 28 28 27 26 25 24 23 22 21 21 20 20 20 19 17 15 15 13 11 11 10 9 9 10 10 10 10 7 5 4 3 7 10 11
28 27 27 27 28 29 29 29 29 29 29 30 31 31 30 28 26 25 25 25 25 25 26 26 26 26 25 24 22 20 19 21 22 23 24 24 24 24 24 24 25 24 26 29 31 30 28 28 26 25 25 26 26 25 24 24 23 21 20 20 20 19 19 19 17 15 14 15 14 12 12 11 10 8 8 8 8 9 7 5 4 4 4 10 11
26 26 26 26 26 27 27 27 27 28 28 28 29 29 29 28 26 24 24 25 25 25 25 25 25 25 25 25 23 21 19 18 20 21 22 23 23 23 23 23 23 23 25 29 30 28 27 27 26 25 24 24 23 22 22 22 22 22 21 20 19 18 17 16 15 14 13 13 13 13 13 12 11 8 7 6 6 8 8 8 6 3 2 8 9
22 22 22 23 24 25 25 25 25 25 26 27 27 28 28 28 28 26 25 25 25 24 24 24 24 24 24 25 25 24 22 21 21 21 21 21 21 22 23 24 24 23 25 27 28 26 25 26 25 24 23 21 20 20 20 20 20 21 21 21 19 18 17 16 16 16 14 12 11 11 11 12 11 9 6 5 5 6 7 9 8 6 4 6 7
20 19 18 18 19 20 22 23 25 25 25 25 25 25 26 26 26 26 26 25 24 23 23 22 22 22 22 23 24 24 24 23 22 21 21 21 20 20 23 25 26 26 25 26 25 24 23 23 22 21 21 20 18 18 18 18 18 19 19 20 19 18 18 17 18 19 17 14 12 10 9 10 11 8 7 7 8 7 8 9 10 9 8 8 8
23 22 20 19 19 19 19 21 22 22 22 21 21 21 22 22 23 23 22 22 22 21 20 20 20 22 22 23 22 22 21 21 21 20 20 20 19 21 23 25 24 24 24 24 23 23 21 20 19 19 20 19 18 17 16 16 17 17 17 18 19 18 18 18 18 19 20 18 15 11 9 8 7 6 8 10 10 9 8 8 9 10 10 10 10
25 24 24 24 23 23 22 22 21 20 19 19 19 19 19 19 20 19 19 18 18 17 17 17 18 20 21 20 19 19 19 19 19 19 19 19 19 21 23 22 22 21 21 20 20 20 19 18 17 17 17 18 17 16 15 15 15 16 16 16 17 18 17 17 16 17 19 21 19 14 11 8 7 7 8 9 9 8 8 7 7 7 9 10 10
24 23 24 25 26 26 27 27 25 24 23 22 21 20 19 19 19 19 19 18 18 18 19 18 18 18 18 17 16 16 17 17 17 18 18 18 19 20 20 20 20 20 18 17 17 17 18 17 15 14 15 16 15 13 13 14 13 13 14 14 15 16 16 16 15 15 16 19 20 18 15 13 11 11 10 10 9 9 8 7 6 6 9 11 11
21 20 20 21 23 25 26 26 25 25 24 23 23 22 21 20 20 19 20 20 21 22 21 20 18 17 17 15 15 15 16 17 17 18 17 16 17 17 18 18 18 18 17 15 15 16 17 16 14 13 14 15 13 12 11 12 11 12 12 12 13 14 15 15 15 14 14 15 17 17 17 17 15 14 13 12 11 10 9 8 8 8 9 10 10
21 20 19 20 21 21 21 21 21 21 21 21 20 20 21 20 20 20 20 21 22 21 20 19 18 16 14 13 12 13 15 16 16 16 15 15 15 15 15 16 17 17 16 14 13 14 15 15 14 13 13 14 14 13 12 10 10 10 11 11 11 13 14 14 13 13 13 13 13 14 14 14 14 14 14 13 12 10 9 8 9 9 8 6 7
21 20 19 19 20 20 19 19 18 18 19 19 18 18 19 19 20 20 20 20 20 19 18 18 17 15 13 12 13 13 14 14 13 13 14 14 14 13 13 14 15 17 17 15 13 13 13 13 13 12 12 13 13 14 14 13 10 9 10 10 10 11 11 12 13 12 12 12 12 12 12 11 10 10 11 11 10 9 9 8 9 9 8 6 5
21 20 19 19 19 19 19 18 17 17 18 18 17 17 16 16 17 18 18 18 18 17 17 17 15 13 12 12 13 13 13 13 12 11 11 12 12 12 12 12 13 15 16 16 15 12 12 13 13 12 12 12 11 11 13 13 12 11 10 9 9 9 10 10 11 11 11 11 11 11 11 10 8 6 7 7 6 6 6 6 7 7 6 5 4
19 19 19 19 19 19 19 18 17 16 16 16 16 16 15 13 13 14 15 15 15 16 16 16 14 12 11 10 11 11 12 11 11 9 9 10 11 11 11 11 11 13 15 16 15 13 12 13 14 13 12 12 11 9 10 11 12 12 12 10 10 9 9 9 10 11 11 10 10 10 10 10 8 6 5 5 5 5 5 5 5 5 6 6 3
17 17 17 18 18 18 18 17 14 13 13 13 14 15 14 13 12 11 12 13 13 13 14 14 12 11 10 9 9 10 9 9 8 8 7 7 8 10 10 10 11 12 13 14 14 14 13 14 14 14 13 12 11 9 9 9 9 10 11 11 10 10 10 10 10 10 10 10 9 8 8 9 8 7 6 5 5 4 4 5 4 5 6 6 5
17 17 18 18 17 17 17 16 13 11 11 11 12 13 13 12 12 11 12 12 11 11 12 13 12 10 9 9 9 8 8 7 6 5 4 4 5 7 8 9 9 11 12 12 12 12 11 11 12 13 13 12 11 9 9 9 10 10 10 10 10 9 9 9 9 10 9 8 7 6 6 6 6 6 5 5 4 3 2 2 4 5 5 4 3
19 18 18 18 18 18 17 16 13 11 9 9 10 11 11 11 10 10 9 10 11 12 12 13 12 9 7 8 8 7 7 6 5 4 4 3 3 3 5 7 8 8 9 10 10 10 9 9 9 10 11 11 11 10 10 11 12 13 12 11 10 10 10 10 10 9 9 8 7 5 5 4 4 4 3 3 3 3 2 2 3 5 6 5 4
18 17 16 16 15 15 15 15 14 11 9 8 7 7 6 7 7 7 6 7 10 12 13 13 12 10 7 6 6 6 6 6 4 3 3 4 3 2 3 4 5 6 6 7 7 7 8 8 8 8 8 8 9 10 10 11 12 14 14 13 12 11 11 10 10 10 9 8 8 7 5 4 4 3 4 4 4 3 3 4 4 5 6 6 5
18 16 15 14 14 13 12 13 13 12 11 10 8 5 3 4 5 5 4 4 8 12 13 13 13 11 8 6 6 6 7 7 5 3 3 5 5 4 2 2 3 3 4 4 4 4 5 6 6 5 6 6 7 7 7 8 11 12 13 13 13 13 13 12 11 10 9 9 9 9 8 7 5 5 5 5 5 6 6 6 7 8 7 6 6
16 14 13 14 14 13 11 11 11 11 11 11 10 8 7 7 6 5 3 3 6 8 10 11 13 12 10 8 8 7 8 8 6 5 5 6 7 6 4 2 1 0 1 2 2 2 3 4 4 4 4 4 5 5 6 7 9 10 11 12 13 13 14 14 13 12 10 9 9 10 11 11 9 8 7 7 6 6 7 7 9 10 10 7 6
14 12 12 12 11 10 10 11 11 10 10 10 11 11 11 11 10 9 8 8 8 9 9 9 9 9 8 7 7 8 9 9 8 6 6 6 8 8 6 5 4 3 2 2 2 2 2 3 4 5 5 4 4 5 6 7 8 9 10 11 12 13 15 16 15 14 12 10 9 10 11 13 13 12 11 10 8 8 8 8 9 10 10 8 5
12 11 11 9 8 8 10 11 11 13 13 12 12 11 11 10 10 11 10 10 10 10 9 8 8 8 7 6 6 6 7 9 8 6 5 5 7 8 8 7 6 5 5 4 4 4 4 4 4 5 6 5 5 5 7 8 9 9 9 10 11 12 14 16 16 15 14 12 10 9 10 12 14 14 13 13 11 10 9 9 9 9 9 9 7
Wind_Direction
73 64 60 59 56 49 42 40 36 31 29 27 26 19 6 356 350 345 346 346 340 334 331 330 330 327 321 317 316 315 313 306 296 284 274 268 264 258 249 241 234 228 225 223 220 219 218 219 220 222 224 225 230 230 223 224 225 216 213 209 200 195 192 184 169 158 180 191 189 192 199 198 198 198 194 192 196 202 204 203 203 205 207 209 210
84 71 65 64 60 53 49 47 42 41 41 41 38 29 16 7 0 358 0 0 356 349 343 341 338 333 328 324 322 323 323 318 306 287 273 265 261 256 246 237 232 228 226 223 220 219 219 220 221 223 224 226 229 229 223 223 221 212 211 208 197 192 192 184 175 157 159 181 184 186 193 193 192 193 194 195 194 195 198 198 199 201 203 205 206
91 79 65 60 60 59 56 53 51 49 45 42 35 26 19 13 7 8 11 8 4 356 350 346 342 336 331 327 323 324 327 325 313 290 273 263 258 254 243 232 229 229 228 224 221 219 218 220 220 220 224 225 221 221 219 216 213 208 208 207 201 197 192 184 179 169 159 172 178 179 184 188 192 193 196 200 192 187 189 191 194 196 197 198 196
94 84 66 63 65 62 57 54 52 47 41 34 26 19 16 10 7 11 11 8 4 359 356 353 349 342 333 326 325 327 331 328 317 297 276 265 257 251 242 231 227 228 225 221 220 219 219 224 223 217 219 220 213 209 212 215 212 204 204 207 203 194 188 185 184 179 174 175 179 182 183 185 192 193 192 194 189 184 185 186 190 193 191 191 189
89 80 69 70 68 60 57 55 49 43 36 27 21 18 16 12 14 18 16 11 9 8 6 0 355 351 342 335 335 341 342 335 321 303 281 271 266 257 248 236 224 220 217 215 219 226 227 229 228 221 219 226 226 217 213 217 214 203 203 207 202 192 189 190 189 187 185 179 177 183 184 182 187 191 190 188 184 184 189 190 189 189 188 191 192
83 73 69 71 66 59 57 54 47 40 32 29 29 27 26 26 28 30 26 21 20 20 17 9 1 357 353 351 354 356 357 352 335 310 286 277 275 263 253 241 228 214 209 210 212 221 227 228 231 227 219 223 227 219 211 216 217 212 207 200 194 193 192 190 192 195 192 184 179 183 185 183 183 185 190 191 186 184 189 192 192 192 192 193 195
84 70 68 68 63 60 58 54 47 39 33 35 39 36 35 36 35 35 33 30 30 29 25 19 13 9 4 0 358 357 1 359 345 323 299 279 267 257 247 239 232 219 215 216 213 216 222 224 229 230 220 217 222 218 213 212 212 212 210 198 190 190 187 184 187 190 187 183 183 183 184 187 188 186 189 193 188 185 186 186 189 197 200 199 199
87 73 66 63 61 62 61 56 49 43 40 40 39 37 37 38 37 36 34 33 32 30 28 24 21 19 16 10 1 354 348 344 339 337 333 303 273 266 254 235 226 218 222 226 224 225 228 227 229 228 219 214 218 218 216 213 206 202 202 198 193 190 186 183 182 183 183 184 185 184 180 182 189 189 187 186 184 187 191 188 187 193 200 203 203
82 72 65 62 63 63 61 56 51 47 44 40 37 39 39 39 40 39 35 34 33 32 31 27 24 22 22 21 15 9 359 345 335 340 356 334 292 280 270 255 245 238 241 240 236 238 240 239 240 235 222 219 222 222 221 217 208 198 194 195 195 190 187 185 181 179 181 183 184 183 177 177 183 183 181 184 188 193 197 195 192 193 196 200 204
78 70 64 63 65 65 61 58 54 48 44 42 42 43 42 42 45 44 42 41 38 36 34 30 26 24 21 22 22 25 28 22 8 349 352 349 313 289 293 288 276 266 261 255 255 259 255 249 248 241 229 229 228 225 224 221 216 212 207 200 194 189 185 184 183 181 182 183 183 182 178 180 184 183 183 190 195 195 194 194 194 192 192 195 201
77 69 65 66 67 67 63 60 57 50 48 47 47 47 47 46 47 48 47 45 42 40 37 32 29 27 24 24 26 32 42 47 47 48 53 62 77 85 68 60 314 271 275 269 260 260 262 264 265 254 240 233 225 223 227 225 221 223 219 209 201 196 191 184 182 183 183 183 183 182 182 187 190 189 188 190 194 196 194 195 194 189 186 187 192
74 69 68 68 68 68 66 62 57 55 54 53 51 50 50 48 48 49 48 47 45 42 40 37 35 34 34 35 35 40 56 70 75 80 85 93 100 96 87 89 92 88 325 297 292 279 282 284 277 261 238 224 221 221 220 216 215 214 211 209 208 207 200 191 189 188 184 182 183 182 185 192 193 192 192 192 194 197 196 196 196 192 190 192 195
71 70 69 69 67 69 71 65 60 60 59 57 54 53 52 49 47 47 48 50 49 47 46 46 46 46 46 44 43 52 73 85 85 86 89 96 102 97 92 93 90 84 81 75 62 48 15 306 274 256 234 222 221 217 207 204 207 200 193 193 196 198 198 198 203 200 188 183 183 182 188 198 195 193 198 199 196 194 193 194 198 198 197 199 203
69 68 70 72 70 71 73 69 66 65 64 60 58 56 53 51 48 47 48 50 49 48 48 50 53 54 54 53 54 59 72 82 85 85 87 90 93 91 88 86 83 78 74 74 75 80 82 83 93 112 157 197 206 204 199 199 197 184 172 173 178 183 183 185 211 209 199 194 191 186 192 204 200 196 200 202 199 197 195 196 199 199 197 200 205
68 67 69 73 74 74 74 74 71 69 68 66 63 59 56 53 50 48 48 49 48 47 50 53 56 57 58 61 64 64 68 77 82 82 83 86 87 86 82 78 75 72 68 67 69 81 95 100 100 105 119 139 162 171 175 178 172 158 152 151 154 165 160 126 122 164 171 174 177 169 167 186 194 194 197 200 201 202 202 203 203 199 191 188 186
69 67 68 72 76 76 76 77 75 71 71 71 67 62 58 54 51 51 51 51 51 51 52 54 56 58 61 65 66 65 67 75 81 82 82 83 84 83 81 76 72 69 64 60 61 71 90 100 95 93 102 111 121 134 143 146 139 129 124 123 123 124 120 109 109 120 124 128 135 132 123 130 147 167 186 197 203 206 205 201 195 186 173 160 155
72 70 70 74 78 78 79 80 78 75 75 73 70 66 62 57 54 54 55 55 54 53 54 55 56 59 62 64 65 64 64 71 80 84 83 83 84 83 81 77 72 68 64 60 60 64 77 90 89 83 88 97 102 110 121 125 120 111 103 100 99 97 92 94 103 109 115 123 131 134 129 131 135 140 153 169 187 199 194 179 173 172 163 150 147
78 76 75 79 82 81 82 82 81 80 80 78 76 72 68 65 62 60 61 60 58 57 58 60 60 60 61 63 64 64 62 65 77 84 85 86 86 84 82 78 73 69 66 63 62 63 69 78 82 83 85 91 97 101 107 109 105 100 95 92 90 85 82 87 95 96 99 107 117 125 129 137 147 146 145 148 154 171 177 170 171 171 161 153 154
85 86 85 87 88 86 86 85 84 85 85 83 83 80 76 73 70 69 68 65 64 62 62 63 61 60 61 63 64 64 62 60 66 75 82 86 86 83 81 79 75 70 68 67 65 64 67 71 76 82 86 90 94 98 101 101 97 93 94 92 88 83 83 89 92 93 92 93 96 101 101 105 117 122 132 149 155 167 182 180 178 176 172 172 168
92 96 95 93 91 90 90 89 88 88 88 87 87 85 82 79 77 75 73 71 69 67 65 65 63 60 61 63 64 64 65 64 63 66 71 76 78 79 78 76 73 71 70 69 67 66 66 68 71 78 85 88 91 93 96 97 96 94 93 91 88 88 90 89 88 88 86 84 83 82 81 84 91 98 102 111 122 143 182 189 187 192 197 190 174
93 97 98 95 92 91 92 93 92 91 92 92 91 87 84 82 80 78 77 75 73 71 67 67 66 63 62 63 63 63 65 67 68 68 68 69 71 73 74 73 72 73 72 68 66 65 65 67 69 75 81 84 84 85 85 87 89 89 89 90 92 93 91 87 85 83 81 79 77 75 73 74 74 75 76 74 76 81 96 141 174 191 195 183 169
92 94 95 94 93 92 92 93 94 95 96 96 93 90 87 85 83 81 79 77 75 74 71 69 69 67 64 63 63 63 64 66 69 69 69 69 70 71 73 74 74 75 73 70 68 66 66 67 69 74 80 82 82 82 83 84 84 83 85 91 94 93 89 86 83 81 77 75 73 70 68 70 71 70 70 69 69 71 71 75 92 117 144 159 162
92 93 93 91 91 92 92 93 94 94 96 96 93 90 88 87 84 82 80 79 76 74 71 71 71 69 66 64 63 63 64 65 68 69 69 70 71 72 74 75 74 74 75 75 73 72 70 68 68 71 76 78 79 80 81 83 84 84 86 89 89 89 88 84 81 80 79 75 71 68 65 67 69 69 68 67 67 70 72 73 78 85 93 100 103
92 91 90 89 89 90 90 92 94 94 95 95 93 89 87 86 84 81 79 78 76 73 70 70 70 68 65 63 62 63 64 65 68 70 71 72 73 73 74 75 75 76 77 77 77 76 75 72 70 70 71 73 74 74 73 74 78 81 83 84 86 86 84 81 79 79 78 74 71 69 67 66 66 63 62 64 66 70 74 77 79 80 81 83 85
94 91 89 88 89 89 89 89 90 91 93 93 92 89 87 86 84 81 80 78 77 74 71 70 70 69 66 64 62 64 65 66 67 69 71 74 75 76 76 76 77 78 78 78 77 77 77 76 74 72 71 72 72 70 68 67 68 70 71 72 73 73 71 72 73 72 69 65 65 67 67 66 65 64 66 74 78 74 71 73 75 74 73 75 76
97 95 93 91 91 92 91 89 88 89 90 90 91 89 88 87 85 83 82 81 79 78 75 73 72 71 69 67 66 67 67 67 67 67 69 72 74 77 79 79 79 80 80 79 78 78 77 76 74 74 73 72 71 70 68 66 65 64 64 62 61 60 59 60 61 61 59 55 54 56 56 54 53 56 61 70 73 67 60 56 57 58 56 56 58
101 99 98 97 96 95 94 93 93 92 91 91 91 90 89 89 86 84 83 83 82 81 79 77 75 73 72 70 70 70 69 68 67 66 66 68 71 74 77 78 79 79 79 78 77 76 75 75 75 75 74 73 72 70 69 67 65 64 62 61 60 59 59 59 59 57 54 50 46 43 38 33 33 35 42 47 50 56 62 59 56 59 57 61 83
105 103 102 101 100 99 98 97 97 96 94 93 92 90 89 88 86 85 84 83 83 83 82 80 79 78 77 75 74 73 71 69 68 66 65 66 70 73 75 74 74 75 75 75 75 74 73 72 71 70 69 68 67 66 65 65 64 63 62 61 60 59 60 60 60 57 53 53 55 50 42 44 51 54 55 52 44 44 62 83 96 111 119 124 118
109 107 107 105 103 102 101 100 99 98 97 95 93 91 89 88 87 87 86 85 84 84 84 84 83 82 81 79 77 76 75 73 72 71 69 69 70 72 73 72 72 72 72 72 72 70 67 65 63 62 62 61 60 60 60 60 59 58 58 56 55 55 55 53 52 52 52 54 58 59 60 63 65 64 65 60 50 44 42 38 196 168 142 130 125
113 111 110 109 108 106 105 103 102 101 100 99 97 94 92 90 88 88 88 87 86 85 85 85 84 82 82 81 80 80 80 80 79 76 74 73 73 73 73 72 71 71 71 70 69 67 65 64 62 60 60 59 59 58 56 55 55 53 52 51 50 49 48 45 44 45 48 52 55 58 62 63 58 51 49 50 48 45 39 25 274 208 185 151 136
117 117 115 114 113 111 110 109 107 106 104 102 101 99 96 93 90 89 89 88 87 86 86 86 83 79 78 79 80 81 83 84 83 80 78 77 75 74 73 72 72 72 72 72 70 68 66 65 63 62 62 62 61 58 55 53 52 50 49 49 48 46 44 41 37 36 41 46 47 48 54 57 56 49 45 46 48 49 49 34 360 274 204 170 150
122 123 122 120 118 116 115 114 113 112 110 107 105 103 100 97 94 91 90 89 88 88 88 86 83 79 76 77 79 82 85 86 83 82 82 80 76 75 76 74 73 73 74 74 73 69 66 65 65 65 66 65 63 59 55 52 50 49 48 47 46 45 43 40 37 35 37 40 40 41 43 40 37 33 31 33 37 41 56 71 27 338 214 180 169
128 128 128 126 124 122 121 120 118 116 114 112 109 107 104 102 100 97 95 93 91 90 89 86 83 81 79 78 78 79 84 87 85 83 83 80 75 73 74 74 72 70 70 71 71 70 68 67 67 67 67 67 64 60 57 54 52 50 48 46 45 44 42 40 38 38 38 36 36 41 39 32 29 27 21 17 19 28 56 92 89 44 199 188 184
137 135 134 133 131 128 126 124 122 120 117 115 113 111 109 108 106 104 102 98 94 91 89 86 83 82 82 81 78 79 83 88 88 86 82 78 73 71 71 71 68 64 63 64 66 66 65 64 64 64 62 61 59 57 56 54 51 50 49 48 47 46 44 44 43 42 41 39 37 40 37 30 29 32 32 35 39 44 67 90 92 87 123 164 174
140 144 146 145 143 139 135 129 124 121 118 117 116 116 115 113 110 107 105 102 98 95 91 86 82 82 85 85 82 80 82 84 85 83 78 73 69 67 66 66 63 60 58 59 60 62 61 59 58 55 52 49 48 50 52 52 50 48 47 46 46 45 43 44 45 44 43 41 38 39 39 33 33 44 66 79 82 83 88 91 88 92 111 129 135
129 135 139 142 144 145 143 139 133 127 123 121 120 119 117 116 114 110 107 105 102 99 96 91 86 86 90 91 87 82 80 79 79 77 73 69 65 63 64 65 63 60 58 57 57 58 57 55 52 50 46 46 47 48 49 50 48 47 45 44 44 43 40 40 42 44 44 44 43 42 40 39 50 78 94 95 95 93 91 94 99 105 113 119 118
124 124 123 125 128 131 134 135 135 134 132 128 124 119 116 117 116 112 110 107 103 102 104 103 98 96 95 93 89 83 80 80 79 75 71 67 65 66 68 68 66 63 61 58 56 56 55 51 50 50 48 48 50 49 46 45 44 43 42 41 41 40 40 39 39 42 43 44 46 47 46 52 79 105 105 101 102 100 94 96 108 123 134 136 130
121 121 119 117 118 122 126 128 130 131 130 125 118 114 115 119 119 114 108 104 103 107 112 112 108 103 100 98 95 90 88 86 83 78 75 70 68 70 70 68 66 64 63 60 56 54 52 49 49 51 49 47 47 45 39 36 35 34 35 37 36 36 38 39 39 41 40 40 46 52 57 64 79 92 94 92 94 99 102 102 106 130 150 152 144
122 123 124 122 120 120 124 127 128 128 125 120 115 111 112 118 121 118 111 106 106 110 114 115 114 110 105 102 100 97 96 93 86 81 78 76 74 72 69 67 65 62 60 60 57 51 48 48 48 49 45 39 36 34 31 28 26 26 30 34 35 36 40 41 40 40 38 36 42 50 57 64 73 78 81 83 84 87 94 95 95 114 141 155 154
128 127 129 129 127 125 125 124 123 125 126 125 122 117 114 116 120 122 119 115 113 114 117 118 118 112 104 98 97 98 101 99 92 84 79 77 77 74 69 65 62 57 54 55 54 48 44 43 43 43 38 33 33 33 30 27 25 23 26 33 37 39 42 43 40 39 36 34 38 45 50 58 68 69 68 71 73 76 83 87 87 94 110 133 151
134 134 135 134 132 131 129 126 124 126 130 133 134 130 125 122 122 124 125 124 123 122 122 122 119 112 104 101 101 101 102 102 96 87 80 75 74 73 69 63 57 53 51 50 47 44 40 36 35 33 28 28 35 41 40 37 33 22 16 22 29 32 33 33 33 34 33 31 34 39 41 48 61 67 63 60 60 66 73 76 75 78 86 97 117
135 137 140 142 139 136 132 129 129 131 133 135 139 141 140 136 131 130 130 131 131 131 130 128 124 118 113 112 110 104 100 98 97 93 86 77 70 68 67 62 54 51 50 48 45 42 39 36 33 29 22 21 29 41 44 41 35 24 11 6 11 16 17 18 20 24 27 27 29 35 40 42 49 64 68 60 51 49 52 53 52 49 49 58 84
138 137 136 138 141 142 140 138 138 139 139 139 139 140 142 143 142 140 138 138 140 141 140 139 137 131 125 124 122 114 105 99 98 98 94 83 74 70 68 63 56 53 53 50 48 49 49 46 43 38 30 24 25 31 36 36 33 29 21 11 3 1 1 2 5 10 17 20 20 25 35 39 42 58 77 71 54 38 29 28 26 11 0 5 15
146 146 142 139 140 143 144 145 144 144 144 144 143 142 144 146 148 151 151 148 149 150 149 151 152 148 141 138 136 127 118 109 105 105 103 91 81 77 74 67 61 59 58 55 55 58 60 58 54 48 42 36 30 22 21 24 26 27 25 21 13 2 355 352 351 352 358 5 8 12 25 35 43 60 78 83 75 62 42 27 16 355 342 341 338
148 150 150 151 151 151 151 150 149 146 146 145 146 150 153 153 155 159 160 159 161 162 158 157 159 156 151 150 148 141 133 126 120 118 121 112 92 82 78 73 69 66 63 59 58 59 59 56 53 50 48 44 36 23 14 16 19 19 18 16 11 3 355 349 343 337 335 339 347 356 7 16 28 46 60 69 72 68 51 20 4 355 344 330 310
156 153 152 155 158 160 161 160 160 160 159 155 152 155 160 161 162 166 169 172 177 178 170 164 166 168 162 156 154 150 147 148 144 141 153 158 134 95 85 79 73 70 67 63 59 56 52 48 46 44 44 44 43 40 37 34 31 28 24 18 10 2 354 349 343 335 323 315 315 328 345 353 356 2 10 24 38 44 36 23 11 2 355 339 303
171 169 166 164 163 165 170 174 177 181 184 179 169 166 170 173 174 177 181 184 189 190 183 176 176 181 183 178 172 165 163 168 169 163 177 195 202 172 109 89 79 74 70 67 64 57 50 45 39 34 33 38 44 49 49 41 32 28 27 23 16 5 356 348 343 336 322 305 293 289 296 311 323 324 322 321 323 326 329 335 341 346 349 342 319
178 179 180 179 178 176 180 185 189 190 190 188 184 177 165 169 184 192 186 181 190 196 196 194 192 193 195 197 193 180 174 181 191 195 201 213 221 218 189 117 94 80 67 67 71 60 44 37 29 18 16 24 31 36 35 28 22 21 23 22 17 10 1 353 346 338 325 308 291 279 274 275 283 291 296 298 303 307 308 312 317 319 322 330 324
182 180 179 181 183 185 190 193 192 189 188 188 187 172 140 134 155 174 177 177 186 190 193 198 202 205 211 218 218 205 193 196 207 218 224 227 227 224 223 227 212 156 32 35 47 40 20 14 5 350 345 356 6 8 6 5 7 10 12 12 10 7 2 357 349 342 334 317 296 282 275 270 269 272 278 280 284 290 294 300 307 305 301 305 317
178 178 178 180 183 188 195 199 197 192 184 181 177 163 142 132 139 144 141 140 143 141 141 151 166 179 193 206 210 204 200 206 216 226 230 233 232 230 230 236 242 253 290 316 314 300 314 336 336 324 314 320 333 340 344 348 352 355 357 357 357 357 357 355 350 344 339 329 309 290 281 276 271 269 269 271 274 283 290 294 297 295 288 284 292
168 174 179 181 177 179 186 192 195 194 190 184 176 167 155 146 145 145 144 142 139 135 133 137 143 149 154 160 166 179 192 201 207 213 220 229 234 235 236 240 248 259 272 284 290 284 284 302 318 312 302 301 307 320 336 343 342 339 338 340 343 346 349 350 348 345 341 336 324 305 288 281 278 275 272 270 268 273 283 289 288 285 282 276 271